FW7376 Weather Reports


Display with metric or nautical units.
time (UTC)temp
F
wind
direction
speed
MPH
gust
MPH
rain 1hr
in
rain 24hr
in
rain mn
in
humidity
%
barometer
mb
20260507140604 54 35 3.0 6.0 0.00 0.05 0.00 48 1014.7
20260507134604 54 348 3.0 12.0 0.00 0.12 0.00 51 1014.9
20260507133605 53 317 5.0 9.0 0.00 0.13 0.00 50 1015.1
20260507132604 53 329 5.0 10.0 0.00 0.14 0.00 52 1015.2
20260507131105 52 348 6.0 10.0 0.00 0.15 0.00 53 1015.2
20260507130604 52 324 4.0 9.0 0.00 0.15 0.00 54 1015.2
20260507130105 52 342 3.0 9.0 0.00 0.15 0.00 56 1015.2
20260507125104 52 329 3.0 10.0 0.00 0.16 0.00 55 1015.2
20260507124605 52 335 3.0 6.0 0.00 0.17 0.00 54 1015.1
20260507124104 51 325 5.0 10.0 0.00 0.18 0.00 55 1015.1
20260507123605 51 320 5.0 9.0 0.00 0.18 0.00 56 1014.9
20260507123105 51 334 2.0 5.0 0.00 0.19 0.00 58 1014.9
20260507121605 51 331 1.0 5.0 0.00 0.19 0.00 57 1014.9
20260507121104 51 331 2.0 5.0 0.00 0.19 0.00 57 1014.8
20260507120105 51 329 3.0 5.0 0.00 0.20 0.00 59 1014.9
20260507115105 51 328 2.0 5.0 0.00 0.20 0.00 59 1014.9
20260507114605 50 322 1.0 3.0 0.00 0.21 0.00 59 1014.9
20260507114104 50 322 2.0 3.0 0.00 0.21 0.00 58 1014.9
20260507113604 50 318 3.0 5.0 0.00 0.21 0.00 58 1015.0
20260507113105 50 314 3.0 3.0 0.00 0.21 0.00 57 1015.0
20260507112605 50 309 1.0 8.0 0.00 0.21 0.00 57 1014.9
20260507112105 50 343 1.0 5.0 0.00 0.22 0.00 57 1014.9
20260507111104 50 355 1.0 3.0 0.00 0.23 0.00 58 1014.8
20260507105605 50 355 1.0 2.0 0.00 0.23 0.00 57 1014.5
20260507105104 50 355 0.0 0.0 0.00 0.23 0.00 57 1014.5
20260507104604 50 355 0.0 2.0 0.00 0.23 0.00 56 1014.4
20260507102105 50 355 2.0 3.0 0.00 0.23 0.00 55 1014.1
20260507101105 50 355 1.0 3.0 0.00 0.23 0.00 55 1013.9
20260507100105 50 5 3.0 5.0 0.00 0.23 0.00 55 1013.7
20260507094104 51 350 3.0 5.0 0.00 0.23 0.00 55 1013.7
20260507093604 51 29 3.0 6.0 0.00 0.23 0.00 55 1013.8
20260507092605 51 0 3.0 5.0 0.00 0.23 0.00 56 1013.8
20260507092105 51 9 1.0 3.0 0.00 0.23 0.00 57 1013.8
20260507091605 51 5 1.0 3.0 0.00 0.23 0.00 58 1013.8
20260507091105 51 5 1.0 3.0 0.00 0.23 0.00 60 1013.8
20260507090604 51 5 2.0 3.0 0.00 0.23 0.00 61 1013.7
20260507085604 51 5 2.0 3.0 0.00 0.23 0.00 62 1013.6
20260507085104 51 5 2.0 3.0 0.00 0.23 0.00 64 1013.6
20260507081604 52 21 2.0 3.0 0.00 0.23 0.00 72 1013.3
20260507080105 52 24 2.0 5.0 0.00 0.23 0.00 72 1013.0
20260507075604 52 355 3.0 6.0 0.00 0.23 0.00 72 1012.9
20260507074104 52 355 1.0 3.0 0.00 0.23 0.00 71 1012.9
20260507073105 52 355 1.0 3.0 0.00 0.23 0.00 71 1012.9
20260507072604 52 355 0.0 2.0 0.00 0.23 0.00 71 1012.9
20260507072104 52 355 2.0 3.0 0.00 0.23 0.00 71 1013.1
20260507071105 53 355 1.0 2.0 0.00 0.23 0.00 71 1013.2
20260507070604 53 355 1.0 3.0 0.00 0.23 0.00 70 1013.3
20260507070105 53 355 1.0 3.0 0.00 0.23 0.00 70 1013.3
20260507065104 53 0 2.0 3.0 0.00 0.23 0.00 70 1013.4
20260507064104 53 11 3.0 7.0 0.00 0.23 0.00 71 1013.3
20260507063104 53 9 1.0 3.0 0.00 0.23 0.00 71 1013.3
20260507062604 53 9 2.0 3.0 0.00 0.23 0.00 71 1013.4
20260507062104 53 12 2.0 3.0 0.00 0.23 0.00 71 1013.4
20260507061104 53 13 2.0 3.0 0.00 0.23 0.00 71 1013.4
20260507060605 53 15 2.0 7.0 0.00 0.23 0.00 71 1013.5
20260507060105 53 19 2.0 3.0 0.00 0.23 0.00 71 1013.5
20260507055604 53 21 3.0 6.0 0.00 0.23 0.00 71 1013.4
20260507054604 53 51 2.0 5.0 0.00 0.23 0.00 73 1013.2
20260507053604 54 53 2.0 5.0 0.00 0.23 0.00 75 1013.1
20260507052604 54 55 1.0 3.0 0.00 0.23 0.00 75 1013.1
20260507052104 54 58 2.0 3.0 0.00 0.23 0.00 76 1013.0
20260507051604 54 55 2.0 6.0 0.00 0.23 0.00 76 1012.9
20260507045604 54 4 3.0 9.0 0.00 0.23 0.00 76 1013.0
20260507045105 54 0 2.0 5.0 0.00 0.23 0.00 76 1012.9
20260507043604 54 325 1.0 3.0 0.00 0.23 0.00 76 1013.0
20260507043104 54 325 2.0 5.0 0.00 0.23 0.00 77 1013.1
20260507042104 54 326 2.0 3.0 0.00 0.23 0.00 76 1013.2
20260507041604 54 327 0.0 6.0 0.00 0.23 0.00 76 1013.1
20260507035604 54 324 3.0 8.0 0.00 0.23 0.23 76 1013.1
20260507035104 54 344 3.0 9.0 0.00 0.23 0.23 76 1012.9
20260507034604 54 320 3.0 6.0 0.00 0.23 0.23 76 1012.7
20260507033604 55 332 2.0 3.0 0.00 0.23 0.23 77 1012.7
20260507032105 55 322 5.0 9.0 0.00 0.23 0.23 77 1012.8
20260507030104 56 349 3.0 10.0 0.00 0.23 0.23 78 1012.8
20260507025104 56 340 3.0 6.0 0.00 0.23 0.23 78 1012.9
20260507024604 56 20 5.0 9.0 0.00 0.23 0.23 78 1012.6
20260507021106 56 323 2.0 5.0 0.00 0.23 0.23 78 1012.4
20260507020106 57 334 2.0 6.0 0.00 0.23 0.23 77 1012.6
20260507014606 57 328 3.0 9.0 0.00 0.23 0.23 77 1012.4
20260507014106 57 324 2.0 9.0 0.00 0.23 0.23 77 1012.3
20260507013606 57 307 3.0 9.0 0.00 0.23 0.23 77 1012.3
20260507013106 58 343 3.0 6.0 0.00 0.23 0.23 77 1012.1
20260507010106 58 327 0.0 5.0 0.00 0.23 0.23 77 1012.2
20260507005106 58 302 3.0 9.0 0.00 0.23 0.23 77 1012.5
20260507004605 59 325 5.0 10.0 0.00 0.23 0.23 77 1012.4
20260507004106 59 19 6.0 9.0 0.00 0.23 0.23 77 1012.0
20260507002106 59 308 3.0 7.0 0.00 0.23 0.23 77 1012.0
20260507001606 59 340 5.0 10.0 0.00 0.23 0.23 76 1011.8
20260507001105 60 318 2.0 12.0 0.00 0.23 0.23 77 1011.8
20260507000606 60 310 5.0 12.0 0.00 0.23 0.23 77 1011.8
20260507000105 60 337 3.0 12.0 0.00 0.23 0.23 79 1011.8
20260506235106 60 355 2.0 5.0 0.00 0.23 0.23 79 1011.6
20260506234105 61 346 1.0 7.0 0.00 0.23 0.23 80 1011.2
20260506233605 61 5 2.0 5.0 0.00 0.23 0.23 81 1010.9
20260506232605 61 344 2.0 3.0 0.00 0.23 0.23 81 1010.6
20260506225105 63 303 5.0 8.0 0.00 0.23 0.23 86 1010.3
20260506224605 63 236 2.0 5.0 0.00 0.23 0.23 87 1009.9
20260506224106 64 234 2.0 3.0 0.01 0.23 0.23 87 1010.0
20260506223605 64 233 1.0 3.0 0.01 0.23 0.23 87 1010.0
20260506223105 64 232 1.0 2.0 0.01 0.23 0.23 87 1009.9
20260506221105 64 232 1.0 2.0 0.01 0.23 0.23 87 1009.9
20260506220606 64 232 0.0 1.0 0.01 0.23 0.23 86 1009.8
20260506220105 64 232 1.0 3.0 0.01 0.23 0.23 86 1009.8
20260506215105 64 231 1.0 3.0 0.01 0.23 0.23 85 1009.9
20260506214105 64 237 2.0 7.0 0.00 0.22 0.22 84 1009.8
20260506213606 65 231 3.0 6.0 0.00 0.22 0.22 84 1009.5
20260506213106 65 256 1.0 6.0 0.00 0.22 0.22 84 1009.4
20260506212605 65 264 2.0 3.0 0.00 0.22 0.22 83 1009.4
20260506211605 65 287 1.0 6.0 0.00 0.22 0.22 82 1009.3
20260506211105 65 253 2.0 5.0 0.00 0.22 0.22 82 1009.3
20260506210606 65 241 2.0 3.0 0.00 0.22 0.22 82 1009.1
20260506204605 65 198 1.0 5.0 0.00 0.22 0.22 83 1008.9
20260506203606 65 183 4.0 7.0 0.00 0.22 0.22 82 1008.7
20260506203106 65 193 2.0 7.0 0.00 0.22 0.22 82 1008.7
20260506202605 65 177 5.0 8.0 0.00 0.22 0.22 82 1008.7
20260506202106 65 216 1.0 3.0 0.00 0.22 0.22 82 1008.7
20260506201606 65 208 2.0 3.0 0.00 0.22 0.22 82 1008.7
20260506200605 65 242 3.0 7.0 0.00 0.22 0.22 82 1008.7
20260506200105 65 212 3.0 6.0 0.00 0.22 0.22 83 1008.7
20260506194105 65 217 2.0 5.0 0.00 0.22 0.22 85 1008.7
20260506193105 64 249 3.0 8.0 0.00 0.22 0.22 85 1008.9
20260506192106 64 228 5.0 8.0 0.00 0.22 0.22 85 1008.8
20260506191606 64 217 3.0 8.0 0.00 0.22 0.22 86 1008.8
20260506191105 64 232 3.0 7.0 0.01 0.22 0.22 87 1008.8
20260506190106 64 231 2.0 9.0 0.01 0.22 0.22 87 1008.9
20260506185106 64 235 3.0 10.0 0.01 0.22 0.22 87 1009.1
20260506184106 64 222 2.0 7.0 0.01 0.22 0.22 87 1009.2
20260506183605 64 225 4.0 9.0 0.01 0.22 0.22 87 1009.2
20260506181605 63 238 5.0 9.0 0.01 0.22 0.22 86 1009.3
20260506181105 63 240 4.0 7.0 0.00 0.21 0.21 85 1009.3
20260506180605 63 228 3.0 9.0 0.00 0.21 0.21 85 1009.2
20260506180105 64 220 3.0 7.0 0.00 0.21 0.21 84 1009.2
20260506175605 64 219 3.0 7.0 0.00 0.21 0.21 83 1009.1
20260506175105 64 228 4.0 10.0 0.00 0.21 0.21 82 1009.1
20260506173606 64 190 6.0 10.0 0.00 0.21 0.21 80 1009.0
20260506170105 64 230 5.0 10.0 0.00 0.21 0.21 79 1008.9
20260506165105 64 215 6.0 14.0 0.00 0.21 0.21 79 1008.8
20260506164605 64 200 6.0 10.0 0.00 0.21 0.21 79 1008.8
20260506164105 64 220 6.0 12.0 0.00 0.21 0.21 80 1008.9
20260506163605 64 229 6.0 12.0 0.00 0.21 0.21 80 1008.9
20260506163106 64 215 4.0 8.0 0.00 0.21 0.21 80 1008.9
20260506162605 64 233 6.0 12.0 0.00 0.21 0.21 80 1008.9
20260506161605 63 210 5.0 12.0 0.00 0.21 0.21 81 1008.9
20260506160605 63 213 6.0 14.0 0.00 0.21 0.21 81 1008.8
20260506155605 62 235 6.0 12.0 0.00 0.21 0.21 82 1008.9
20260506154105 62 205 6.0 14.0 0.00 0.21 0.21 84 1009.1
20260506150606 61 198 6.0 15.0 0.03 0.21 0.21 87 1008.8
20260506145605 61 215 7.0 15.0 0.07 0.21 0.21 87 1008.8
20260506145105 60 215 8.0 15.0 0.07 0.21 0.21 87 1008.6
20260506144105 60 179 6.0 15.0 0.11 0.21 0.21 87 1008.8
20260506143105 60 185 4.0 7.0 0.12 0.21 0.21 87 1009.1
20260506142105 60 191 2.0 3.0 0.11 0.20 0.20 87 1009.6